Location: Camp at the Woods
(43.2055°N, 93.0905°W)
Time: 09:53:22
(UTC+00:00)

BlueWalker 3 - Pass Details

Date: 18 April 2024
Orbit: 482 x 494 km, 53.2° (Epoch: 22 May)

Event Time Altitude Azimuth Distance (km) Brightness Sun altitude
Rises 03:15:07 0° 248° (WSW) 2,566 5.9 -22.5°
Reaches altitude 10° 03:17:20 10° 254° (WSW) 1,689 5.0 -22.8°
Maximum altitude 03:21:02 48° 330° (NNW) 654 2.8 -23.3°
Enters shadow 03:22:44 28° 30° (NNE) 968 3.4 -23.5°
